Location: Unspecified
(0.0000°N, 0.0000°E)
Time: 13:41:08
(UTC+00:00)

Amateur Radio Satellites - All Passes

Search period start: 01 September 2014 13:11
Search period end: 02 September 2014 13:11
Location: Unspecified, 0.0000°N, 0.0000°E

Satellite Date Start Highest point End Downlink Frequencies (MHz)
Time Altitude Azimuth
Oscar 19 01 Sep 13:14:14 13:19:23 86° 78° (ENE) 13:24:32 437.125 CW, 437.150 USB
Gurwin Techsat 1B 01 Sep 13:20:50 13:22:24 11° 77° (ENE) 13:23:57 435.225 FM
AO-Echo 01 Sep 13:29:18 13:34:24 53° 78° (ENE) 13:39:20 ?
Oscar 16 01 Sep 13:49:57 13:54:31 33° 257° (WSW) 13:59:05 437.025 USB, Beacon 2401.1428
ITAMSAT 1 01 Sep 13:50:11 13:55:23 81° 78° (ENE) 14:00:33 435.822 SSB
JAS-1B 01 Sep 13:53:52 14:03:40 82° 76° (ENE) 14:13:25 435.800 - 435.900 CW/SSB
Uribyol 2 01 Sep 13:59:46 14:04:56 71° 257° (WSW) 14:10:03 436.500 FM
SO-50 01 Sep 14:07:56 14:11:15 18° 248° (WSW) 14:14:35 436.795 FM
TMSAT-1 01 Sep 14:08:12 14:12:50 31° 78° (ENE) 14:17:27 436.925 FM
UOSAT-12 01 Sep 14:18:08 14:21:50 24° 67° (ENE) 14:25:30 437.025 FM, 437.400 FM
AO-27 01 Sep 14:19:55 14:24:49 43° 257° (WSW) 14:29:42 436.795 MHz FM
Sapphire 01 Sep 14:23:19 14:28:35 55° 109° (ESE) 14:33:50 437.095 MHz 1200 baud AX-25 AFSK
PCSat 01 Sep 14:52:31 14:57:50 61° 289° (WNW) 15:03:08 145.825 MHz
Gurwin Techsat 1B 01 Sep 14:57:03 15:02:05 44° 257° (WSW) 15:07:06 435.225 FM
AO-7 01 Sep 15:34:45 15:42:51 54° 74° (ENE) 15:50:53 29.400 - 29.500 MHz
JAS-1B 01 Sep 15:48:33 15:53:33 15° 255° (WSW) 15:58:37 435.800 - 435.900 CW/SSB
TMSAT-1 01 Sep 15:49:14 15:52:28 17° 257° (WSW) 15:55:42 436.925 FM
UOSAT-12 01 Sep 15:58:54 16:01:43 16° 248° (WSW) 16:04:30 437.025 FM, 437.400 FM
Uosat F 01 Sep 15:59:45 16:04:48 88° 77° (ENE) 16:09:48 435.120 FM
AO-40 01 Sep 16:09:03 01:15:41 85° 182° (S) 11:09:31 Beacon 2401.320
OPAL 01 Sep 16:10:54 16:16:04 89° 104° (ESE) 16:21:12 ?
PANSAT 01 Sep 16:18:15 16:20:03 13° 28° (NNE) 16:21:52 not established
RS-15 01 Sep 17:01:21 17:12:34 59° 70° (ENE) 17:24:16 29.354 - 29.394 USB, Beacon 29.352 USB
AO-7 01 Sep 17:29:37 17:35:12 20° 253° (WSW) 17:40:49 29.400 - 29.500 MHz
Hamsat 01 Sep 17:34:59 17:39:15 87° 79° (ENE) 17:43:32 145.90 MHz
JAS-2 01 Sep 17:48:06 17:55:15 79° 257° (WSW) 18:01:31 435.800 - 435.900 CW/SSB, 435.910 FM
PANSAT 01 Sep 17:56:24 18:00:15 84° 30° (NNE) 18:04:06 not established
STRAND 1 01 Sep 17:57:54 18:02:33 36° 103° (ESE) 18:07:14 ?
ISS 01 Sep 18:13:05 18:16:13 40° 55° (NE) 18:19:23 145.800 FM
SO-67 01 Sep 18:48:29 18:51:57 87° 259° (W) 18:55:25 435.3500 MHz FM
Oscar 10/S400 01 Sep 19:01:39 19:20:21 41° 358° (N) 05:31:42 145.825 - 145.975 CW/USB, Beacon 145.810 USB
RS-15 01 Sep 19:15:54 19:24:43 25° 247° (WSW) 19:33:54 29.354 - 29.394 USB, Beacon 29.352 USB
PANSAT 01 Sep 19:38:16 19:40:26 14° 208° (SSW) 19:42:36 not established
STRAND 1 01 Sep 19:39:09 19:41:28 13° 283° (WNW) 19:43:49 ?
KITSAT 1 01 Sep 19:45:54 19:50:28 16° 111° (ESE) 19:55:01 435.175 FM
Saudisat 1A 01 Sep 20:04:38 20:09:01 80° 292° (WNW) 20:13:24 436.775 MHz
HO-68 01 Sep 20:54:51 21:02:00 77° 256° (WSW) 21:09:08 435.675 MHz FM
UKube-1 01 Sep 21:05:49 21:10:11 84° 78° (ENE) 21:14:31 145.840 MHz, 145.915 MHz
Oscar 11 01 Sep 21:10:01 21:14:14 52° 78° (ENE) 21:18:25 145.825 FM, Beacon 2401.500 USB
KITSAT 1 01 Sep 21:37:39 21:45:36 61° 290° (WNW) 21:53:32 435.175 FM
FUNcube-1 01 Sep 21:41:30 21:45:24 40° 78° (ENE) 21:49:17 145.950 - 145.970 MHz USB
MaSat-1 01 Sep 22:36:38 22:39:42 30° 71° (ENE) 22:42:23 437.345 MHz
Oscar 19 02 Sep 00:11:41 00:14:08 13° 103° (ESE) 00:16:34 437.125 CW, 437.150 USB
SO-50 02 Sep 00:40:08 00:44:18 42° 112° (ESE) 00:48:28 436.795 FM
Oscar 16 02 Sep 00:44:33 00:49:20 38° 103° (ESE) 00:54:05 437.025 USB, Beacon 2401.1428
ITAMSAT 1 02 Sep 00:48:49 00:51:11 13° 103° (ESE) 00:53:33 435.822 SSB
Uribyol 2 02 Sep 00:57:00 01:00:35 19° 103° (ESE) 01:04:11 436.500 FM
AO-27 02 Sep 01:16:11 01:20:44 31° 103° (ESE) 01:25:18 436.795 MHz FM
Sapphire 02 Sep 01:20:14 01:21:45 11° 70° (ENE) 01:23:16 437.095 MHz 1200 baud AX-25 AFSK
PCSat 02 Sep 01:46:28 01:51:00 28° 71° (ENE) 01:55:32 145.825 MHz
Oscar 19 02 Sep 01:48:30 01:53:11 36° 283° (WNW) 01:57:53 437.125 CW, 437.150 USB
Gurwin Techsat 1B 02 Sep 01:56:08 02:00:52 34° 103° (ESE) 02:05:36 435.225 FM
AO-Echo 02 Sep 01:58:26 02:03:09 67° 282° (WNW) 02:08:03 ?
JAS-1B 02 Sep 02:07:21 02:13:05 85° 283° (WNW) 02:18:51 435.800 - 435.900 CW/SSB
ITAMSAT 1 02 Sep 02:25:37 02:30:23 37° 283° (WNW) 02:35:10 435.822 SSB
Oscar 16 02 Sep 02:26:14 02:28:23 13° 283° (WNW) 02:30:33 437.025 USB, Beacon 2401.1428
UOSAT-12 02 Sep 02:27:40 02:31:51 40° 112° (ESE) 02:36:06 437.025 FM, 437.400 FM
Uribyol 2 02 Sep 02:35:28 02:39:47 27° 283° (WNW) 02:44:07 436.500 FM
TMSAT-1 02 Sep 02:45:38 02:50:56 90° 284° (WNW) 02:56:15 436.925 FM
Uosat F 02 Sep 02:54:15 02:55:58 12° 103° (ESE) 02:57:40 435.120 FM
AO-27 02 Sep 02:56:52 02:59:58 16° 283° (WNW) 03:03:06 436.795 MHz FM
Sapphire 02 Sep 02:59:46 03:04:55 46° 251° (WSW) 03:10:05 437.095 MHz 1200 baud AX-25 AFSK
OPAL 02 Sep 03:07:00 03:09:07 13° 75° (ENE) 03:11:15 ?
PCSat 02 Sep 03:30:22 03:34:08 19° 250° (WSW) 03:37:55 145.825 MHz
Gurwin Techsat 1B 02 Sep 03:37:34 03:40:33 15° 283° (WNW) 03:43:33 435.225 FM
AO-7 02 Sep 04:00:50 04:09:07 85° 106° (ESE) 04:17:26 29.400 - 29.500 MHz
PANSAT 02 Sep 04:05:32 04:07:32 14° 152° (SSE) 04:09:32 not established
Uosat F 02 Sep 04:29:50 04:34:27 39° 283° (WNW) 04:39:06 435.120 FM
OPAL 02 Sep 04:43:10 04:47:43 36° 256° (WSW) 04:52:18 ?
RS-15 02 Sep 04:44:42 04:55:46 49° 111° (ESE) 05:06:16 29.354 - 29.394 USB, Beacon 29.352 USB
JAS-2 02 Sep 05:19:44 05:25:29 53° 104° (ESE) 05:32:02 435.800 - 435.900 CW/SSB, 435.910 FM
Hamsat 02 Sep 05:42:21 05:46:36 73° 281° (WNW) 05:50:50 145.90 MHz
PANSAT 02 Sep 05:43:51 05:47:44 89° 149° (SSE) 05:51:36 not established
ISS 02 Sep 05:49:12 05:52:03 26° 126° (SE) 05:54:52 145.800 FM
STRAND 1 02 Sep 06:30:18 06:35:27 87° 257° (WSW) 06:40:32 ?
SO-67 02 Sep 06:33:16 06:36:35 46° 101° (E) 06:39:54 435.3500 MHz FM
RS-15 02 Sep 06:58:27 07:07:38 29° 291° (WNW) 07:16:36 29.354 - 29.394 USB, Beacon 29.352 USB
JAS-2 02 Sep 07:08:20 07:10:33 12° 280° (W) 07:12:51 435.800 - 435.900 CW/SSB, 435.910 FM
PANSAT 02 Sep 07:25:51 07:27:55 14° 332° (NNW) 07:29:59 not established
KITSAT 1 02 Sep 07:52:42 07:58:29 22° 69° (ENE) 08:04:15 435.175 FM
Saudisat 1A 02 Sep 08:10:54 08:15:08 49° 248° (WSW) 08:19:23 436.775 MHz
HO-68 02 Sep 08:46:18 08:53:28 90° 105° (ESE) 09:00:41 435.675 MHz FM
UKube-1 02 Sep 09:15:34 09:19:53 71° 282° (WNW) 09:24:13 145.840 MHz, 145.915 MHz
Oscar 11 02 Sep 09:19:05 09:23:25 72° 102° (ESE) 09:27:44 145.825 FM, Beacon 2401.500 USB
KITSAT 1 02 Sep 09:45:57 09:53:33 47° 250° (WSW) 10:01:12 435.175 FM
FUNcube-1 02 Sep 09:51:34 09:56:07 62° 102° (ESE) 10:00:41 145.950 - 145.970 MHz USB
MaSat-1 02 Sep 10:24:57 10:28:43 36° 105° (ESE) 10:32:58 437.345 MHz
JAS-1B 02 Sep 12:26:59 12:32:45 17° 75° (ENE) 12:38:24 435.800 - 435.900 CW/SSB
Oscar 19 02 Sep 12:43:16 12:47:55 35° 77° (ENE) 12:52:33 437.125 CW, 437.150 USB
AO-Echo 02 Sep 12:51:06 12:54:24 17° 78° (ENE) 12:57:38 ?
SO-50 02 Sep 12:52:47 12:57:38 85° 68° (ENE) 13:02:30 436.795 FM
